This is the latest recevied weather packets stored in our database for station/object KD2VWU. If no packets are shown the sender has not sent any weather packets the latest 1 day(s).
| Time | Temp. | Humidity | Pressure | Rain* | Wind** | Luminosity | Snow |
|---|---|---|---|---|---|---|---|
| 1778043228 | 16.67° C | 76% | 1007.3 hPa | 0 mm | 0 m/s | - | - |
| 1778042925 | 17.22° C | 76% | 1007.2 hPa | 0 mm | 0.89 m/s, 258° | - | - |
| 1778042623 | 16.67° C | 75% | 1007.2 hPa | 0 mm | 0.45 m/s, 312° | - | - |
| 1778042320 | 16.67° C | 76% | 1007.3 hPa | 0 mm | 0.89 m/s, 236° | - | - |
| 1778042017 | 17.22° C | 75% | 1007.3 hPa | 0 mm | 0.45 m/s, 68° | - | - |
| 1778041715 | 17.22° C | 76% | 1007.4 hPa | 0 mm | 0.45 m/s, 179° | - | - |
| 1778041414 | 17.22° C | 74% | 1007.4 hPa | 0 mm | 0.45 m/s, 233° | - | - |
| 1778041113 | 17.22° C | 75% | 1007.1 hPa | 0 mm | 0.45 m/s, 111° | - | - |
| 1778040809 | 17.22° C | 74% | 1007.1 hPa | 0 mm | 0.45 m/s, 93° | - | - |
| 1778040506 | 17.22° C | 74% | 1007.2 hPa | 0 mm | 0.45 m/s, 195° | - | - |
| 1778040204 | 17.22° C | 75% | 1007.3 hPa | 0 mm | 0 m/s | - | - |
| 1778039900 | 17.22° C | 74% | 1007.2 hPa | 0 mm | 0 m/s | - | - |
| 1778039597 | 17.78° C | 73% | 1007.2 hPa | 0 mm | 0.89 m/s, 20° | - | - |
| 1778039294 | 17.78° C | 73% | 1007.2 hPa | 0 mm | 0.45 m/s, 192° | - | - |
| 1778038992 | 17.78° C | 72% | 1007.1 hPa | 0 mm | 1.34 m/s, 250° | - | - |
| 1778038689 | 17.78° C | 73% | 1007.3 hPa | 0 mm | 0 m/s | - | - |
| 1778038385 | 17.78° C | 72% | 1007.3 hPa | 0 mm | 0 m/s | - | - |
| 1778038082 | 17.78° C | 72% | 1007.1 hPa | 0 mm | 0 m/s | - | - |
| 1778037779 | 18.33° C | 71% | 1007.3 hPa | 0 mm | 0 m/s | - | - |
| 1778037475 | 18.33° C | 70% | 1007.1 hPa | 0 mm | 0.89 m/s, 258° | - | - |
| 1778037173 | 18.33° C | 70% | 1006.9 hPa | 0 mm | 0.45 m/s, 287° | - | - |
| 1778036871 | 18.33° C | 70% | 1007.1 hPa | 0 mm | 0 m/s | - | - |
| 1778036569 | 18.89° C | 70% | 1007 hPa | 0 mm | 0.89 m/s, 93° | - | - |
| 1778036265 | 18.33° C | 70% | 1007.1 hPa | 0 mm | 0.45 m/s, 185° | - | - |
| 1778035961 | 18.33° C | 70% | 1007 hPa | 0 mm | 0.89 m/s, 66° | - | - |
* Rain latest hour (hover to see other rain measurements)
** Current wind speed in m/s (hover to see current wind gust speed)